Simultaneous Nadir Overpasses (SNOs) Predictions

Prediction of SNOs near equator between NOAA-19 and NPP Satellite Orbit:

Table of predicted SNOs near equator for the next 14.0 days since TLE Epoch: 11/25/2012
Index Date (NOAA-19) Time (NOAA-19) NOAA-19 Lat,Lon Date (NPP) Time (NPP) NPP Lat,Lon Distance(km) Time Diff (sec)
1 11/28/2012 17:25:14 -29.96, 117.14 11/28/2012 17:18:16 -29.74, 116.19 94.66 418
2 11/28/2012 18:16:15 29.96, -75.62 11/28/2012 18:09:05 29.78, -76.52 89.69 430
3 11/28/2012 19:07:19 -29.96, 91.61 11/28/2012 18:59:47 -29.81, 90.79 80.95 452
4 11/28/2012 19:58:20 29.96,-101.14 11/28/2012 19:50:35 29.79,-101.90 76.03 465
5 11/28/2012 20:49:24 -29.97, 66.09 11/28/2012 20:41:17 -29.82, 65.42 67.28 487
6 11/28/2012 21:40:25 29.96,-126.66 11/28/2012 21:32:06 29.85,-127.29 62.34 499
7 11/28/2012 22:31:
